Location: Lynchburg College Observatory
(37.3822°N, 79.5391°W)
Time: 21:00:36
(UTC-05:00)

Hubble Space Telescope - Visible Passes

Search period start: 23 January 2018 00:00
Search period end: 02 February 2018 00:00
Orbit: 537 x 541 km, 28.5° (Epoch: 23 January)

Date Brightness Start Highest point End Pass type
(mag) Time Alt. Az. Time Alt. Az. Time Alt. Az.
23 Jan 3.0 18:55:37 10° SSW 18:57:39 13° SSE 18:58:58 12° SE visible
24 Jan 3.0 18:44:48 10° SSW 18:47:17 16° SSE 18:49:22 11° SE visible
24 Jan 3.9 20:24:36 10° SW 20:24:44 11° SW 20:24:44 11° SW visible
25 Jan 2.8 18:34:08 10° SSW 18:36:55 18° SSE 18:39:43 10° SE visible
25 Jan 3.5 20:14:15 10° SW 20:15:07 14° SW 20:15:07 14° SW visible
26 Jan 2.8 18:23:34 10° SW 18:26:34 19° S 18:29:34 10° ESE visible
26 Jan 3.2 20:03:55 10° SW 20:05:31 18° SW 20:05:31 18° SW visible
27 Jan 2.7 18:13:04 10° SW 18:16:13 21° S 18:19:21 10° ESE visible
27 Jan 2.9 19:53:38 10° WSW 19:55:55 20° SSW 19:55:55 20° SSW visible
28 Jan 2.7 18:02:37 10° SW 18:05:52 22° S 18:09:06 10° ESE visible
28 Jan 2.7 19:43:23 10° WSW 19:46:21 21° SSW 19:46:21 21° SSW visible
29 Jan 2.7 19:33:12 10° WSW 19:36:11 19° S 19:36:50 19° S visible
30 Jan 2.9 19:23:03 10° SW 19:25:49 18° SSW 19:27:22 15° SSE visible
31 Jan 3.2 19:12:59 10° SW 19:15:27 15° SSW 19:17:56 10° SSE visible
01 Feb 3.4 19:03:03 10° SW 19:05:04 13° SSW 19:07:07 10° SSE visible
